Location: Emblem
(62.4273°N, 6.4710°E)
Time: 17:16:20
(UTC+01:00)

Explorer 7 - All Passes

Search period start: 29 January 2023 00:00
Search period end: 08 February 2023 00:00
Orbit: 480 x 660 km, 50.3° (Epoch: 29 January)

Date Brightness Start Highest point End Pass type
(mag) Time Alt. Az. Time Alt. Az. Time Alt. Az.
29 Jan - 15:38:05 10° SSW 15:40:29 14° SSE 15:42:55 10° SE daylight
29 Jan - 17:16:28 10° SW 17:19:36 18° S 17:22:48 10° SE visible
29 Jan - 18:56:20 10° SW 18:58:44 14° SSW 19:01:09 10° S visible
30 Jan - 15:38:30 10° SSW 15:41:11 16° SSE 15:43:56 10° SE daylight
30 Jan - 17:17:17 10° SW 17:20:20 18° S 17:23:28 10° SE visible
30 Jan - 18:57:38 10° SW 18:59:24 12° SSW 19:01:12 10° S visible
31 Jan - 15:39:02 10° SSW 15:41:53 17° S 15:44:50 10° SE daylight
31 Jan - 17:18:08 10° SW 17:21:03 17° S 17:24:03 10° SSE visible
01 Feb - 14:02:09 10° S 14:03:34 11° SSE 14:05:01 10° SE daylight
01 Feb - 15:39:39 10° SW 15:42:36 17° S 15:45:38 10° SE daylight
01 Feb - 17:19:03 10° SW 17:21:46 16° SSW 17:24:31 10° SSE visible
02 Feb - 14:02:10 10° S 14:04:14 13° SSE 14:06:18 10° SE daylight
02 Feb - 15:40:20 10° SW 15:43:18 18° S 15:46:21 10° SE daylight
02 Feb - 17:20:05 10° SW 17:22:26 14° SSW 17:24:49 10° SSE daylight
03 Feb - 14:02:28 10° SSW 14:04:53 15° SSE 14:07:20 10° SE daylight
03 Feb - 15:41:05 10° SW 15:44:00 17° S 15:47:00 10° SE daylight
03 Feb - 17:21:19 10° SW 17:23:05 12° SSW 17:24:52 10° S daylight
04 Feb - 14:02:55 10° SSW 14:05:32 16° SSE 14:08:14 10° SE daylight
04 Feb - 15:41:53 10° SW 15:44:41 17° S 15:47:33 10° SSE daylight
04 Feb - 17:23:30 10° SSW 17:23:42 10° SSW 17:23:53 10° SSW daylight
05 Feb - 12:26:42 10° SSE 12:27:13 10° SSE 12:27:45 10° SE daylight
05 Feb - 14:03:28 10° SSW 14:06:11 17° S 14:09:01 10° SE daylight
05 Feb - 15:42:45 10° SW 15:45:20 15° SSW 15:48:00 10° SSE daylight
06 Feb - 12:26:12 10° S 12:27:49 12° SSE 12:29:27 10° SE daylight
06 Feb - 14:04:05 10° SW 14:06:51 17° S 14:09:43 10° SE daylight
06 Feb - 15:43:44 10° SW 15:45:59 14° SSW 15:48:17 10° SSE daylight
07 Feb - 12:26:20 10° SSW 12:28:25 13° SSE 12:30:32 10° SE daylight
07 Feb - 14:04:46 10° SW 14:07:30 17° S 14:10:20 10° SE daylight
07 Feb - 15:44:54 10° SW 15:46:36 12° SSW 15:48:18 10° S daylight
